Home   Weather   Scottsdale   Past weeks

Flag for USA Past Weather in Scottsdale, Arizona, USA — Yesterday and Last 2 Weeks

Now
91 °F

Scattered clouds.


Feels Like: 89 °F
Forecast: 71 / 89 °F
Wind: 5 mph from East

Location: Scottsdale Airport

Current Time: Sep 28, 2016 at 1:35:29 PM

Latest Report: Sep 28, 2016 at 12:53 PM


Visibility: 10 mi

Pressure: 29.89 "Hg

Humidity: 28%

Dew Point: 53 °F

Location of ScottsdaleLocation

Past Weather in Scottsdale — Graph

°F

Scottsdale Temperature Yesterday

Maximum temperature yesterday: 86 °F (at 2:53 PM)
Minimum temperature yesterday: 72 °F (at 6:53 AM)
Average temperature yesterday: 79 °F

High & Low Weather Summary for the Past Weeks

 TemperatureHumidityPressure
High102 °F (Sep 18, 2:53 PM)88% (Sep 22, 4:00 PM)30.03 "Hg (Sep 22, 4:00 PM)
Low60 °F (Sep 24, 6:53 AM)6% (Sep 18, 3:53 PM)29.70 "Hg (Sep 22, 6:53 PM)
Average82 °F30%29.87 "Hg
* Reported Sep 13 11:53 AM — Sep 28 11:53 AM, Scottsdale, Weather by CustomWeather, © 2016

Note: Actual official high and low records may vary slightly from our data, if they occured in-between our weather recording intervals... More about our weather records

Advertising

Scottsdale Weather History for the Previous 24 Hours

Scroll right to see more
 ConditionsComfort  
Time TempWeatherWind HumidityBarometerVisibility
11:53 AM
Wed, Sep 28
90 °FScattered clouds.8 mph28%29.91 "HgN/A
10:53 AM87 °FSunny.7 mph31%29.92 "HgN/A
9:53 AM86 °FScattered clouds.9 mph32%29.93 "HgN/A
8:53 AM83 °FPassing clouds.8 mph36%29.93 "HgN/A
7:53 AM81 °FSunny.5 mph38%29.92 "HgN/A
6:53 AM78 °FScattered clouds.5 mph42%29.91 "Hg10 mi
5:53 AM76 °FPassing clouds.3 mph45%29.89 "Hg10 mi
4:53 AM74 °FPassing clouds.No wind48%29.88 "Hg10 mi
3:53 AM79 °FPassing clouds.8 mph38%29.88 "Hg10 mi
2:53 AM75 °FClear.No wind45%29.87 "Hg10 mi
1:53 AM74 °FClear.No wind46%29.87 "Hg10 mi
12:53 AM78 °FClear.5 mph39%29.87 "Hg10 mi
11:53 PM
Tue, Sep 27
79 °FClear.6 mph36%29.88 "Hg10 mi
10:53 PM80 °FPassing clouds.5 mph32%29.88 "Hg10 mi
9:53 PM79 °FPassing clouds.No wind36%29.88 "Hg5 mi
9:00 PM79 °FLow clouds.No wind38%29.95 "Hg2 mi
8:02 PM80 °FOvercast.3 mph35%29.93 "Hg1 mi
7:53 PM81 °FPassing clouds.3 mph34%29.87 "Hg2 mi
6:53 PM84 °FClear.3 mph30%29.85 "Hg10 mi
5:53 PM86 °FSunny.3 mph26%29.83 "Hg10 mi
4:53 PM86 °FSunny.5 mph25%29.83 "Hg10 mi
3:53 PM86 °FSunny.3 mph25%29.85 "Hg10 mi
2:53 PM86 °FSunny.9 mph26%29.87 "Hg10 mi
1:53 PM83 °FSunny.9 mph32%29.89 "Hg10 mi
Weather by CustomWeather, © 2016

See weather overviewHow to use our weather pages